When you browse on this site, cookies collect data to enhance your experience and personalize the content and advertising you see.
Visit our Privacy Policy to learn more. By continuing to use the site, you agree to this use of cookies and data.
  • In Hungary
  • List of Countries
  • For 7 days
  • Water Temperature
  • Weather Map
  • News
  • Weather Widgets
  • user-avatar
    Login

    Hourly Weather El Dorado Hills

    Today, 17 November, Sunday

    Time Temperature Precipitation Wind Pressure Humidity
    00:00 +13°C° 0 mm 1 mps 745 mmHg 55%
    01:00 +13°C° 0 mm 1 mps 745 mmHg 53%
    02:00 +13°C° 0 mm 1 mps 745 mmHg 52%
    03:00 +13°C° 0 mm 1 mps 745 mmHg 50%
    04:00 +13°C° 0 mm 1 mps 745 mmHg 49%
    05:00 +11°C° 0 mm 0 mps 745 mmHg 48%
    06:00 +11°C° 0 mm 0 mps 745 mmHg 48%
    07:00 +11°C° 0 mm 0 mps 746 mmHg 48%
    08:00 +15°C° 0 mm 1 mps 745 mmHg 41%
    09:00 +19°C° 0 mm 1 mps 745 mmHg 35%
    10:00 +22°C° 0 mm 1 mps 745 mmHg 28%
    11:00 +23°C° 0 mm 1 mps 745 mmHg 27%
    12:00 +24°C° 0 mm 1 mps 744 mmHg 26%
    13:00 +25°C° 0 mm 1 mps 744 mmHg 25%
    14:00 +24°C° 0 mm 1 mps 743 mmHg 27%
    15:00 +23°C° 0 mm 1 mps 743 mmHg 29%
    16:00 +20°C° 0 mm 0 mps 743 mmHg 31%
    17:00 +21°C° 0 mm 1 mps 743 mmHg 34%
    18:00 +19°C° 0 mm 1 mps 743 mmHg 36%
    19:00 +16°C° 0 mm 1 mps 743 mmHg 39%
    20:00 +16°C° 0 mm 1 mps 743 mmHg 38%
    21:00 +16°C° 0 mm 1 mps 743 mmHg 37%
    22:00 +15°C° 0 mm 1 mps 743 mmHg 36%
    23:00 +15°C° 0 mm 1 mps 743 mmHg 36%

    Tomorrow, 18 November, Monday

    Time Temperature Precipitation Wind Pressure Humidity
    00:00 +15°C° 0 mm 1 mps 743 mmHg 36%
    01:00 +15°C° 0 mm 1 mps 743 mmHg 36%
    02:00 +15°C° 0 mm 1 mps 743 mmHg 36%
    03:00 +14°C° 0 mm 1 mps 743 mmHg 36%
    04:00 +14°C° 0 mm 1 mps 742 mmHg 36%
    05:00 +14°C° 0 mm 1 mps 743 mmHg 36%
    06:00 +14°C° 0 mm 1 mps 743 mmHg 35%
    07:00 +14°C° 0 mm 1 mps 743 mmHg 35%
    08:00 +18°C° 0 mm 1 mps 742 mmHg 31%
    09:00 +21°C° 0 mm 1 mps 742 mmHg 27%
    10:00 +24°C° 0 mm 1 mps 742 mmHg 23%
    11:00 +25°C° 0 mm 1 mps 741 mmHg 22%
    12:00 +26°C° 0 mm 1 mps 741 mmHg 22%
    13:00 +27°C° 0 mm 1 mps 740 mmHg 21%
    14:00 +26°C° 0 mm 1 mps 740 mmHg 25%
    15:00 +25°C° 0 mm 1 mps 739 mmHg 28%
    16:00 +22°C° 0 mm 0 mps 739 mmHg 31%
    17:00 +22°C° 0 mm 1 mps 739 mmHg 34%
    18:00 +20°C° 0 mm 1 mps 739 mmHg 36%
    19:00 +18°C° 0 mm 1 mps 739 mmHg 39%
    20:00 +18°C° 0 mm 1 mps 739 mmHg 38%
    21:00 +18°C° 0 mm 1 mps 739 mmHg 37%
    22:00 +16°C° 0 mm 1 mps 739 mmHg 36%
    23:00 +16°C° 0 mm 1 mps 738 mmHg 36%

    Day after tomorrow, 19 November, Tuesday

    Time Temperature Precipitation Wind Pressure Humidity
    00:00 +16°C° 0 mm 1 mps 738 mmHg 36%
    01:00 +15°C° 0 mm 1 mps 737 mmHg 36%
    02:00 +15°C° 0 mm 1 mps 737 mmHg 38%
    03:00 +15°C° 0 mm 1 mps 737 mmHg 40%
    04:00 +15°C° 0 mm 1 mps 736 mmHg 42%
    05:00 +14°C° 0 mm 1 mps 736 mmHg 45%
    06:00 +14°C° 0 mm 1 mps 736 mmHg 48%
    07:00 +13°C° 0 mm 1 mps 736 mmHg 51%
    08:00 +14°C° 0 mm 1 mps 736 mmHg 56%
    09:00 +16°C° 0 mm 2 mps 736 mmHg 60%
    10:00 +17°C° 0 mm 2 mps 735 mmHg 64%
    11:00 +18°C° 0 mm 2 mps 735 mmHg 59%
    12:00 +19°C° 0 mm 2 mps 734 mmHg 53%
    13:00 +20°C° 0 mm 2 mps 733 mmHg 48%
    14:00 +20°C° 0 mm 1 mps 733 mmHg 48%
    15:00 +20°C° 0 mm 1 mps 733 mmHg 49%
    16:00 +19°C° 0 mm 1 mps 732 mmHg 49%
    17:00 +16°C° 0 mm 1 mps 732 mmHg 55%
    18:00 +14°C° 0 mm 1 mps 732 mmHg 62%
    19:00 +13°C° 0 mm 1 mps 732 mmHg 68%
    20:00 +12°C° 0 mm 1 mps 732 mmHg 70%
    21:00 +11°C° 0 mm 1 mps 732 mmHg 71%
    22:00 +11°C° 0 mm 1 mps 732 mmHg 72%
    23:00 +10°C° 0 mm 1 mps 732 mmHg 70%

    20 November, Wednesday

    Time Temperature Precipitation Wind Pressure Humidity
    00:00 +10°C° 0 mm 1 mps 732 mmHg 69%
    01:00 +10°C° 0 mm 1 mps 732 mmHg 68%
    02:00 +10°C° 0 mm 1 mps 732 mmHg 65%
    03:00 +9°C° 0 mm 2 mps 732 mmHg 62%
    04:00 +9°C° 0 mm 2 mps 733 mmHg 59%
    05:00 +8°C° 0 mm 2 mps 733 mmHg 58%
    06:00 +8°C° 0 mm 2 mps 733 mmHg 57%
    07:00 +8°C° 0 mm 2 mps 733 mmHg 56%
    08:00 +10°C° 0 mm 2 mps 733 mmHg 49%
    09:00 +14°C° 0 mm 2 mps 733 mmHg 42%
    10:00 +16°C° 0 mm 3 mps 733 mmHg 35%
    11:00 +17°C° 0 mm 3 mps 733 mmHg 32%
    12:00 +19°C° 0 mm 3 mps 732 mmHg 30%
    13:00 +20°C° 0 mm 3 mps 732 mmHg 27%
    14:00 +19°C° 0 mm 3 mps 732 mmHg 31%
    15:00 +18°C° 0 mm 3 mps 732 mmHg 34%
    16:00 +17°C° 0 mm 3 mps 731 mmHg 38%
    17:00 +15°C° 0 mm 2 mps 732 mmHg 41%
    18:00 +13°C° 0 mm 2 mps 732 mmHg 44%
    19:00 +12°C° 0 mm 2 mps 733 mmHg 48%
    20:00 +11°C° 0 mm 1 mps 733 mmHg 48%
    21:00 +10°C° 0 mm 1 mps 734 mmHg 49%
    22:00 +9°C° 0 mm 1 mps 734 mmHg 50%
    23:00 +9°C° 0 mm 1 mps 735 mmHg 53%

    21 November, Thursday

    Time Temperature Precipitation Wind Pressure Humidity
    00:00 +8°C° 0 mm 1 mps 735 mmHg 56%
    01:00 +8°C° 0 mm 1 mps 735 mmHg 60%
    02:00 +8°C° 0 mm 1 mps 736 mmHg 61%
    03:00 +7°C° 0 mm 1 mps 737 mmHg 62%
    04:00 +7°C° 0 mm 1 mps 737 mmHg 64%
    05:00 +7°C° 0 mm 1 mps 738 mmHg 62%
    06:00 +7°C° 0 mm 1 mps 738 mmHg 61%
    07:00 +7°C° 0 mm 1 mps 738 mmHg 59%
    08:00 +10°C° 0 mm 1 mps 739 mmHg 51%
    09:00 +13°C° 0 mm 1 mps 739 mmHg 43%
    10:00 +16°C° 0 mm 1 mps 739 mmHg 35%
    11:00 +16°C° 0 mm 1 mps 739 mmHg 35%
    12:00 +18°C° 0 mm 1 mps 739 mmHg 34%
    13:00 +18°C° 0 mm 2 mps 739 mmHg 34%
    14:00 +18°C° 0 mm 1 mps 739 mmHg 37%
    15:00 +18°C° 0 mm 1 mps 739 mmHg 39%
    16:00 +16°C° 0 mm 1 mps 739 mmHg 42%
    17:00 +14°C° 0 mm 1 mps 740 mmHg 46%
    18:00 +13°C° 0 mm 1 mps 741 mmHg 51%
    19:00 +11°C° 0 mm 1 mps 742 mmHg 56%
    20:00 +11°C° 0 mm 1 mps 742 mmHg 55%
    21:00 +10°C° 0 mm 1 mps 743 mmHg 55%
    22:00 +9°C° 0 mm 2 mps 743 mmHg 55%
    23:00 +10°C° 0 mm 1 mps 743 mmHg 54%

    22 November, Friday

    Time Temperature Precipitation Wind Pressure Humidity
    00:00 +10°C° 0 mm 1 mps 744 mmHg 53%
    01:00 +10°C° 0 mm 1 mps 744 mmHg 52%
    02:00 +10°C° 0 mm 1 mps 744 mmHg 52%
    03:00 +10°C° 0 mm 1 mps 744 mmHg 52%
    04:00 +10°C° 0 mm 1 mps 745 mmHg 52%
    05:00 +10°C° 0 mm 1 mps 745 mmHg 53%
    06:00 +9°C° 0 mm 1 mps 745 mmHg 53%
    07:00 +9°C° 0 mm 1 mps 745 mmHg 54%
    08:00 +12°C° 0 mm 1 mps 745 mmHg 48%
    09:00 +14°C° 0 mm 1 mps 746 mmHg 42%
    10:00 +16°C° 0 mm 1 mps 746 mmHg 36%
    11:00 +18°C° 0 mm 1 mps 746 mmHg 34%
    12:00 +18°C° 0 mm 2 mps 745 mmHg 33%
    13:00 +18°C° 0 mm 2 mps 745 mmHg 32%
    14:00 +18°C° 0 mm 2 mps 745 mmHg 34%
    15:00 +18°C° 0 mm 1 mps 745 mmHg 36%
    16:00 +18°C° 0 mm 1 mps 745 mmHg 39%
    17:00 +15°C° 0 mm 1 mps 745 mmHg 42%
    18:00 +14°C° 0 mm 1 mps 745 mmHg 46%
    19:00 +12°C° 0 mm 1 mps 746 mmHg 50%
    20:00 +12°C° 0 mm 1 mps 746 mmHg 50%
    21:00 +12°C° 0 mm 1 mps 746 mmHg 50%
    22:00 +12°C° 0 mm 1 mps 746 mmHg 50%
    23:00 +12°C° 0 mm 1 mps 746 mmHg 50%
    Show more